Regional Weather Roundup
Issued by NWS

Home | Current Version | Previous Version | Graphics & Text | Print | Product List | Glossary On
Versions: 1 2 3 4 5 6 7 8 9 10 11 12 13 14 15 16 17 18 19 20 21 22 23 24 25 26 27 28 29 30 31 32 33 34 35 36 37 38 39 40 41 42 43 44 45 46 47 48 49 50
810
ASUS45 KTFX 112110
RWRMT
MONTANA REGIONAL WEATHER ROUNDUP
NATIONAL WEATHER SERVICE GREAT FALLS MT
200 PM MST THU FEB 11 2016

NOTE: "FAIR" INDICATES FEW OR NO CLOUDS BELOW 12000 FEET WITH NO
SIGNIFICANT WEATHER AND/OR OBSTRUCTIONS TO VISIBILITY.

MTZ001>007-043-112200-
WEST OF THE DIVIDE

CITY           SKY/WX    TMP DP  RH WIND       PRES   REMARKS
KALISPELL        N/A     46  32  58 N3        30.27F
MISSOULA         N/A     49  33  54 CALM      30.27F
BUTTE          CLOUDY    48  25  40 N3        30.26F
MULLAN PASS    CLOUDY    36  29  75 SW5       30.26F
ANACONDA         N/A     46  28  49 N7        30.26F
DEER LODGE       N/A     46  30  53 CALM      30.28S
HAMILTON         N/A     48  34  57 CALM      30.26F
PLAINS           N/A     49  37  63 CALM      30.26F
THOMPSON FALLS   N/A     47  38  71 W3        30.30F
$$

MTZ008-052>055-112200-
SOUTHWEST MONTANA

CITY           SKY/WX    TMP DP  RH WIND       PRES   REMARKS
BOZEMAN        CLOUDY    44  28  53 S3        30.25F
DILLON         CLOUDY    41  29  62 S12       30.26F
ENNIS          CLOUDY    46  28  49 S14       30.32S
TWIN BRIDGES     N/A     42  29  60 CALM      30.23F
$$

MTZ009-010-012-014-046-048-049-054-112200-
EAST SLOPES AND CENTRAL MONTANA

CITY           SKY/WX    TMP DP  RH WIND       PRES   REMARKS
CUT BANK         N/A     47  27  45 N20       30.19S
GREAT FALLS    SUNNY     58  15  18 NW10G18   30.18S
MALMSTROM AFB  MOSUNNY   56  18  23 N10G18    30.19S
HELENA         SUNNY     55  25  31 W10G17    30.22F
CHOTEAU          N/A     54  12  19 NW10G18   30.20S
CONRAD           N/A     51  28  41 N13       30.20R
$$

MTZ011-013-016-021-045-047-050-051-112200-
NORTH CENTRAL MONTANA

CITY           SKY/WX    TMP DP  RH WIND       PRES   REMARKS
HAVRE          PTSUNNY   38  32  79 W12       30.20R WCI  30
LEWISTOWN      SUNNY     50  25  37 NW13G24   30.16S
N BAR RANCH      N/A     52  23  32 NW18G29   30.17S
CHINOOK          N/A     43  34  70 W9        30.18F
$$

MTZ017>020-022>027-061-062-112200-
NORTHEAST MONTANA

CITY           SKY/WX    TMP DP  RH WIND       PRES   REMARKS
GLASGOW        CLOUDY    32  24  72 CALM      30.18S
JORDAN           N/A     38  32  79 NE8       30.14R
SIDNEY         MOSUNNY   27  19  74 N9        30.19R WCI  17
WOLF POINT     SUNNY     31  21  66 NE5       30.20S
PLENTYWOOD       N/A     21  16  79 N6        30.18S WCI  14
POPLAR           N/A     25  19  80 NE6       30.20F WCI  18
SCOBEY           N/A     23  12  62 N5        30.14S
$$

MTZ028>42-056>058-112200-
SOUTHCENTRAL AND SOUTHEAST MONTANA

CITY           SKY/WX    TMP DP  RH WIND       PRES   REMARKS
BAKER          CLOUDY    33  28  81 NW17      30.10R WCI  22
BILLINGS       MOSUNNY   59  19  21 NW20G30   30.14F
LIVINGSTON     SUNNY     57  18  21 W21G28    30.20S
MILES CITY     CLOUDY    46  32  58 N16       30.12R
EKALAKA          N/A     41  29  62 NW21      30.04R
FORSYTH          N/A     54  30  40 NW14G22   30.11S
LAUREL           N/A     59  19  21 NW18      30.12F
ROUNDUP          N/A     57  22  26 NW16      30.04S
$$

REGIONAL REPORTS...DAKOTAS

CITY           SKY/WX    TMP DP  RH WIND       PRES   REMARKS
WILLISTON      CLOUDY    25  18  74 N7        30.19R WCI  17
MINOT          CLOUDY    22  11  62 NW7       30.18S WCI  13
DICKINSON      LGT SNOW  24  19  81 NE7       30.07S WCI  16
BEACH          CLOUDY    28  27  93 N8        30.15R WCI  20
CROSBY         CLOUDY    19  16  86 N6        30.21F WCI  11
TIOGA            N/A     19  18  93 NW7       30.21R WCI  10
WATFORD CITY   PTSUNNY   25  19  80 N7        30.16S WCI  17
BISMARCK       LGT SNOW  27  18  69 NE6       30.14S WCI  20
GRAND FORKS    CLOUDY    15   7  70 W7        30.22S WCI   5
FARGO          CLOUDY    15   1  53 NW3       30.21S
BUFFALO SD       N/A     38  30  73 NW24      29.98R WCI  27
RAPID CITY     SUNNY     58  27  30 NW35G52   29.99S
$$

REGIONAL REPORTS...WYOMING/IDAHO/WASHINGTON

CITY           SKY/WX    TMP DP  RH WIND       PRES   REMARKS
GILLETTE       CLOUDY    52  25  35 NW25G36   30.10S
SHERIDAN       SUNNY     56  24  29 N23G29    30.13F
BUFFALO WY     SUNNY     52  24  33 N25G41    30.13F
CODY           CLOUDY    55  16  21 N22G28    30.16S
YELLOWSTONE LA   N/A     42  18  37 VRB7      30.33F
IDAHO FALLS    CLOUDY    28  22  78 N6        30.39F WCI  22
SALMON         CLOUDY    27  19  74 CALM      30.39F
BOISE            N/A     45  33  63 CALM      30.36F
SPOKANE        CLOUDY    41  37  86 NE9       30.28F
$$

REGIONAL REPORTS...ALBERTA

CITY           SKY/WX    TMP DP  RH WIND       PRES   REMARKS
EDMONTON       CLOUDY    21  16  79 E5        30.23R
CALGARY        MOSUNNY   45  32  61 E7        30.19R
LETHBRIDGE     PTSUNNY   46  34  61 NW13G21   30.21F
MEDICINE HAT   PTSUNNY   37  32  81 W9        30.20F WCI  31
MILK RIVER       N/A     45  34  65 NW15        N/A
ONEFOUR          N/A     34  28  80 NW22        N/A  WCI  22
$$

REGIONAL REPORTS...SASKATCHEWAN

CITY           SKY/WX    TMP DP  RH WIND       PRES   REMARKS
SWIFT CURRENT  CLOUDY    21  16  79 CALM      30.18R
REGINA         CLOUDY    19  10  68 N14       30.22F WCI   6
SASKATOON      FLURRIES   9   3  78 NE9       30.33S WCI  -5
CYPRESS HILLS    N/A     27  25  93 NW6         N/A  WCI  20
VAL MARIE        N/A     30  25  80 NW8         N/A  WCI  23
ROCKGLEN         N/A     21  16  79 N5          N/A
ASSINIBOIA       N/A     19  16  86 NE7         N/A  WCI  10
$$




USA.gov is the U.S. government's official web portal to all federal, state and local government web resources and services.